[[{"header":{"parameterUnit":"m.s-1","parameterCategory":1,"la1":30.2991,"la2":30.254,"lo1":-89.0895,"lo2":-89.0444,"dy":0.0017,"dx":0.0017,"nx":28,"ny":28,"refTime":"2023-08-11T03:00:00:Z","depth":0,"parameterNumber":2,"parameterNumberName":"U-component_of_WINDS"},"data":[0,0,0,0,0,0,0,0,0,0,0,0,0,0,0,0,0,0,0,0,0,0,0,0,0,0,0,0,0,0,0,0,0,0,0,0,0,0,0,0,0,0,0,0,0,0,0,0,0,0,0,0,0,0,0,0,0,0,5.1981,5.1983,0,5.2152,5.2154,5.2156,5.2112,5.2109,5.2105,5.2102,5.2277,5.2285,5.2293,0,0,0,0,0,0,0,0,0,0,0,0,0,5.1616,5.1622,5.1981,5.1983,5.1985,5.2151,5.2154,5.2156,5.2113,5.2109,5.2104,5.2101,5.2275,5.2284,5.2293,0,0,0,0,0,0,0,0,0,0,0,0,0,5.1779,5.1625,5.198,5.1984,5.1985,5.2151,5.2154,5.2157,5.2114,5.2108,5.2103,5.2099,5.2272,5.2283,5.2295,5.2468,0,0,5.233,5.2335,0,0,0,0,0,0,0,0,5.177,5.1793,5.1981,5.1984,5.1986,5.2105,5.2089,5.2261,5.2115,5.2065,5.2102,5.2096,5.2224,5.2239,5.2283,5.2476,5.2483,5.2331,5.2338,5.2343,5.2347,0,0,0,0,0,0,0,5.1759,5.1785,5.2048,5.1984,5.1987,5.1976,5.1993,5.2121,5.2171,5.2069,5.2066,5.2087,5.2225,5.2271,5.2286,5.2486,5.2331,5.2341,5.2349,5.2353,5.2826,5.2831,0,0,0,0,0,0,5.1745,5.1776,5.2043,5.2054,5.1863,5.1986,5.2006,5.2072,5.2169,5.2179,5.2091,5.2084,5.2254,5.2273,5.2292,5.2498,5.2343,5.2354,5.2361,5.282,5.2827,5.2833,0,0,0,0,0,0,5.1738,5.177,5.2036,5.1914,5.1947,5.1998,5.2073,5.2078,5.2125,5.2186,5.2194,5.213,5.2251,5.2276,5.2423,5.2504,5.236,5.237,5.2814,5.2822,5.283,5.2914,0,0,0,0,0,0,5.1727,5.1767,5.1834,5.1916,5.1954,5.2165,5.2078,5.2085,5.2145,5.2138,5.2225,5.2234,5.2249,5.2406,5.2435,5.2517,5.2379,5.2807,5.2818,5.2828,5.2904,5.2924,5.2941,0,0,0,0,0,5.1714,5.1851,5.1837,5.187,5.2038,5.217,5.2191,5.2205,5.2152,5.2219,5.2257,5.2231,5.2491,5.2422,5.2454,5.2541,5.2802,5.2815,5.2827,5.2896,5.292,5.294,0,0,0,0,0,0,5.1778,5.1862,5.1848,5.2015,5.2086,5.2162,5.2247,5.2231,5.2318,5.2308,5.2321,5.2341,5.2491,5.2531,5.2453,5.2712,5.2638,5.2658,5.268,5.2703,5.2722,5.2708,5.2389,0,0,0,0,0,5.1812,5.1912,5.198,5.2121,5.2157,5.2196,5.2254,5.2258,5.2332,5.2361,5.2411,5.2483,5.2581,5.2645,5.2738,5.291,5.2927,5.2986,5.3004,5.3019,5.3035,5.3125,5.3152,5.2874,5.2874,5.2874,0,0,5.1882,5.194,5.2003,5.2135,5.219,5.2292,5.2222,5.2334,5.2409,5.2379,5.252,5.2559,5.264,5.28,5.2873,5.2838,5.3115,5.3035,5.3046,5.3054,5.3141,5.3167,5.319,5.2883,5.2881,5.288,0,0,5.2062,5.2117,5.2239,5.2295,5.2379,5.2404,5.2433,5.2512,5.2536,5.2679,5.2657,5.2747,5.2916,5.2973,5.3025,5.3224,5.3202,5.3255,5.335,5.3438,5.346,5.3479,5.3548,5.3572,5.3271,5.3271,5.3271,0,5.2138,5.2292,5.2304,5.2417,5.2475,5.2452,5.2574,5.2628,5.2739,5.2779,5.2738,5.2947,5.3,5.3171,5.3219,5.3263,5.3295,5.3244,5.3456,5.3476,5.3494,5.3559,5.3585,5.3276,5.3276,5.3275,5.3275,0,5.238,5.2487,5.2575,5.2681,5.2749,5.2867,5.2896,5.2963,5.2961,5.299,5.3134,5.3197,5.3301,5.3342,5.3343,5.3513,5.3488,5.3452,5.3378,5.3526,5.3587,5.3612,5.3284,5.3282,5.3281,5.3279,0,0,5.2605,5.2714,5.2746,5.2792,5.2883,5.2965,5.3081,5.3182,5.3238,5.3315,5.341,5.3553,5.3518,5.3577,5.3583,5.3661,5.3811,5.3615,5.3617,5.3646,5.3999,5.4024,5.4053,5.3798,5.3803,5.3807,5.3991,0,5.279,5.2993,5.3007,5.319,5.3287,5.3265,5.3366,5.3431,5.3461,5.3547,5.358,5.3679,5.3629,5.3663,5.3739,5.3777,5.3882,5.3764,5.3885,5.3889,5.3863,5.4085,5.4112,5.4284,5.4016,5.402,5.4023,0,5.3033,5.3115,5.3308,5.3381,5.3423,5.3513,5.3605,5.3688,5.3761,5.3777,5.3842,5.3836,5.3954,5.3877,5.4037,5.3957,5.4008,5.4033,5.404,5.405,5.3963,5.4098,5.4339,5.4363,5.4061,5.4058,5.4055,0,5.3173,5.3333,5.3468,5.3508,5.3599,5.3662,5.3702,5.377,5.3829,5.391,5.3948,5.4042,5.4093,5.4166,5.4185,5.4128,5.4344,5.427,5.4359,5.4358,5.4403,5.44,5.4653,5.4441,5.4441,5.444,5.444,0,5.3377,5.3495,5.3531,5.3614,5.3745,5.3759,5.3888,5.3925,5.3985,5.4073,5.4062,5.4145,5.4167,5.4254,5.4271,5.4399,5.4423,5.4438,5.444,5.4438,5.4435,5.4469,5.4456,5.4447,5.4446,5.4444,5.4443,0,5.3555,5.3585,5.373,5.3803,5.3823,5.3916,5.3978,5.4057,5.4084,5.4196,5.4224,5.4267,5.4369,5.4396,5.4518,5.4529,5.4679,5.4672,5.4654,5.4653,5.4739,5.4729,5.502,5.5057,5.4824,5.4826,5.4828,0,5.3682,5.3772,5.3854,5.3912,5.3954,5.4049,5.4108,5.4126,5.4188,5.4277,5.4344,5.4444,5.4525,5.4688,5.473,5.4823,5.4816,5.4911,5.483,5.4823,5.4813,5.4806,5.4814,5.4926,5.4928,5.493,5.4932,0,5.3903,5.3912,5.3999,5.409,5.4161,5.4234,5.4303,5.4352,5.4378,5.4449,5.4552,5.4615,5.4738,5.4837,5.493,5.4971,5.4955,5.4958,5.4982,5.4979,5.4963,5.497,5.4693,5.495,5.4949,5.4947,5.4946,5.4946,5.4057,5.4135,5.4203,5.4299,5.4353,5.4418,5.4494,5.4531,5.4617,5.4718,5.4724,5.4835,5.4903,5.5027,5.5073,5.5159,5.5131,5.5168,5.5176,5.5184,5.519,5.4952,5.5177,5.5176,5.5176,5.5176,5.5175,0,5.4274,5.4317,5.4405,5.4502,5.4577,5.4556,5.4632,5.4695,5.4793,5.4858,5.4937,5.5054,5.5149,5.5198,5.5292,5.5352,5.5347,5.5376,5.537,5.5379,5.5212,5.5179,5.5378,5.5378,5.5378,5.5378,5.5378,5.5378,5.4396,5.4525,5.4542,5.4697,5.4739,5.4847,5.4892,5.4951,5.5002,5.5133,5.5212,5.5243,5.5301,5.5399,5.5484,5.5496,5.553,5.5562,5.5569,5.5412,5.5391,5.5371,5.5341,5.557,5.557,5.5729,5.573,5.5731]},{"header":{"parameterUnit":"m.s-1","parameterCategory":1,"la1":30.2991,"la2":30.254,"lo1":-89.0895,"lo2":-89.0444,"dy":0.0017,"dx":0.0017,"nx":28,"ny":28,"refTime":"2023-08-11T03:00:00:Z","depth":0,"parameterNumber":3,"parameterNumberName":"V-component_of_WINDS"},"data":[0,0,0,0,0,0,0,0,0,0,0,0,0,0,0,0,0,0,0,0,0,0,0,0,0,0,0,0,0,0,0,0,0,0,0,0,0,0,0,0,0,0,0,0,0,0,0,0,0,0,0,0,0,0,0,0,0,0,2.3664,2.3664,0,2.3694,2.3694,2.3694,2.3653,2.3651,2.365,2.3648,2.3678,2.368,2.3682,0,0,0,0,0,0,0,0,0,0,0,0,0,2.357,2.3572,2.3664,2.3665,2.3665,2.3694,2.3694,2.3694,2.3653,2.3651,2.365,2.3648,2.3677,2.368,2.3682,0,0,0,0,0,0,0,0,0,0,0,0,0,2.3607,2.3573,2.3664,2.3648,2.3647,2.3693,2.3694,2.3694,2.3653,2.3651,2.3649,2.3647,2.3676,2.368,2.3683,2.3747,0,0,2.3693,2.3694,0,0,0,0,0,0,0,0,2.3605,2.361,2.365,2.3649,2.3648,2.3667,2.3672,2.3712,2.3654,2.3651,2.3648,2.3646,2.3676,2.3679,2.369,2.3748,2.3749,2.3693,2.3695,2.3696,2.3697,0,0,0,0,0,0,0,2.3602,2.3609,2.3676,2.365,2.3649,2.3638,2.3641,2.3679,2.3675,2.3651,2.3648,2.3652,2.3675,2.3687,2.369,2.375,2.3693,2.3696,2.3698,2.3699,2.3861,2.3863,0,0,0,0,0,0,2.3602,2.3607,2.3675,2.3677,2.362,2.3642,2.3645,2.3663,2.3675,2.3675,2.3654,2.365,2.3682,2.3686,2.3691,2.3766,2.3696,2.3699,2.3701,2.3858,2.3861,2.3864,0,0,0,0,0,0,2.36,2.3608,2.3674,2.3641,2.3648,2.3646,2.3667,2.3665,2.3676,2.3677,2.3676,2.3666,2.3681,2.3686,2.3733,2.3766,2.3701,2.3704,2.3855,2.3859,2.3862,2.3916,0,0,0,0,0,0,2.3597,2.3608,2.3633,2.3642,2.365,2.3716,2.3669,2.3667,2.3682,2.3677,2.3689,2.3688,2.3679,2.3728,2.3736,2.3769,2.3706,2.3852,2.3857,2.3861,2.3912,2.3921,2.393,0,0,0,0,0,2.3594,2.3647,2.3634,2.3643,2.3681,2.3718,2.3723,2.3711,2.3685,2.371,2.371,2.3688,2.3761,2.3733,2.3742,2.3777,2.385,2.3856,2.3861,2.3907,2.3919,2.3929,0,0,0,0,0,0,2.3642,2.3648,2.3634,2.3691,2.3704,2.3711,2.3742,2.3724,2.3745,2.374,2.3725,2.3727,2.3777,2.3781,2.375,2.3838,2.3801,2.3808,2.3834,2.3845,2.3854,2.3852,2.3709,0,0,0,0,0,2.3659,2.3689,2.3692,2.3742,2.375,2.3745,2.376,2.375,2.3763,2.3768,2.3772,2.3785,2.3811,2.3828,2.3852,2.3912,2.3913,2.394,2.3949,2.3956,2.3962,2.3993,2.4005,2.3881,2.3881,2.3881,0,0,2.3695,2.3702,2.3722,2.3752,2.3761,2.3791,2.375,2.3784,2.3806,2.3773,2.3817,2.382,2.3834,2.3887,2.3911,2.3892,2.3997,2.3963,2.3969,2.3971,2.4,2.4011,2.4022,2.3885,2.3884,2.3883,0,0,2.3776,2.3785,2.3827,2.3836,2.385,2.3846,2.3856,2.3865,2.3866,2.391,2.3886,2.3911,2.3957,2.3967,2.3978,2.4061,2.4041,2.4069,2.4116,2.4146,2.4156,2.4164,2.4193,2.4204,2.4075,2.4075,2.4075,0,2.3819,2.3864,2.385,2.3886,2.39,2.3871,2.3913,2.3923,2.3944,2.3954,2.3933,2.3988,2.3995,2.4049,2.407,2.408,2.409,2.4068,2.4155,2.4164,2.4172,2.4199,2.421,2.4079,2.4078,2.4078,2.4078,0,2.3915,2.3947,2.3979,2.4,2.4017,2.4056,2.4047,2.4066,2.4054,2.4052,2.4096,2.4104,2.4128,2.414,2.4129,2.4193,2.4181,2.4158,2.412,2.4187,2.4212,2.4223,2.4083,2.4082,2.4081,2.408,0,0,2.4028,2.404,2.4052,2.406,2.4073,2.4097,2.4133,2.4157,2.4173,2.4188,2.4218,2.4256,2.4234,2.4247,2.4237,2.4263,2.4327,2.4237,2.4237,2.4253,2.4396,2.4413,2.4426,2.4314,2.4316,2.4317,2.4395,0,2.4108,2.4172,2.416,2.4222,2.425,2.4223,2.4255,2.4265,2.4264,2.4287,2.4286,2.4313,2.4283,2.429,2.4315,2.4314,2.4356,2.4308,2.4341,2.4342,2.4338,2.4439,2.4457,2.453,2.4405,2.4407,2.4408,0,2.421,2.4229,2.4293,2.43,2.4312,2.434,2.436,2.4383,2.4394,2.4391,2.4405,2.4389,2.4424,2.4386,2.4434,2.4402,2.4415,2.4416,2.4419,2.4421,2.4379,2.4444,2.4553,2.4564,2.4423,2.4422,2.4421,0,2.4285,2.4326,2.437,2.4378,2.4387,2.4408,2.4413,2.4421,2.4436,2.4453,2.4462,2.4483,2.4495,2.4511,2.4501,2.4474,2.4551,2.4512,2.4549,2.4549,2.4566,2.4565,2.4679,2.4575,2.4575,2.4574,2.4574,0,2.4376,2.4416,2.4403,2.443,2.4474,2.4459,2.4503,2.4505,2.4513,2.4539,2.4516,2.4541,2.4526,2.455,2.4542,2.4582,2.4588,2.4586,2.4583,2.4588,2.4588,2.4596,2.459,2.4577,2.4577,2.4576,2.4576,0,2.4467,2.446,2.4505,2.451,2.4512,2.4544,2.4548,2.4572,2.4569,2.4602,2.4609,2.4603,2.463,2.4621,2.4649,2.4644,2.4695,2.4686,2.4692,2.4689,2.4726,2.4722,2.4848,2.4864,2.475,2.4752,2.4752,0,2.4525,2.4555,2.4563,2.4578,2.4585,2.4611,2.4625,2.4611,2.4627,2.4641,2.4664,2.4688,2.4707,2.475,2.4748,2.4769,2.476,2.4803,2.4763,2.4766,2.476,2.4758,2.476,2.4811,2.4812,2.4813,2.4814,0,2.4628,2.4623,2.4645,2.4665,2.4683,2.4698,2.4711,2.4725,2.4712,2.4731,2.4758,2.4772,2.48,2.4824,2.4843,2.4847,2.4828,2.4826,2.4836,2.484,2.4842,2.4841,2.4713,2.4824,2.4823,2.4822,2.4821,2.4821,2.4704,2.4729,2.4738,2.4763,2.4771,2.4784,2.4807,2.4806,2.4827,2.4849,2.484,2.487,2.4879,2.4902,2.4909,2.4932,2.4915,2.4929,2.4933,2.4936,2.4941,2.4839,2.4935,2.4935,2.4935,2.4934,2.4934,0,2.4806,2.481,2.4833,2.4851,2.487,2.4851,2.4864,2.4881,2.4908,2.4918,2.4936,2.4966,2.4989,2.4988,2.5009,2.5028,2.5019,2.5034,2.5032,2.5033,2.4955,2.4944,2.504,2.504,2.504,2.504,2.504,2.504,2.4861,2.4902,2.4898,2.4942,2.4946,2.4975,2.4984,2.4995,2.5003,2.5037,2.5056,2.5055,2.5061,2.5082,2.5101,2.51,2.5109,2.5126,2.5122,2.5049,2.5039,2.5029,2.5018,2.5128,2.5128,2.5198,2.5199,2.52]}]]